RH
40 40 41 46 56 64 64 64 70 70 57 50 48 46 43 42 46 40 40 40 38 37 36 30 33 34 38 43 40 34 44 42 44 47 41 41 36 32 22 21 23 30 24
38 39 40 40 48 56 60 64 65 66 62 58 51 46 41 37 39 41 42 43 45 43 37 38 36 36 37 46 46 44 32 34 38 38 35 30 38 23 26 26 27 36 26
40 42 42 43 44 54 59 60 57 50 46 48 46 50 43 41 41 35 35 35 35 37 40 42 40 39 37 40 46 44 44 33 34 43 40 34 30 30 23 28 26 31 29
36 36 38 40 41 46 50 52 50 49 51 48 53 46 36 35 44 38 39 36 38 37 37 41 42 44 42 44 42 40 44 42 38 35 33 43 41 39 32 24 25 24 26
33 33 33 33 33 39 45 48 50 48 47 46 47 44 45 46 44 48 50 52 50 50 41 48 55 54 42 50 53 53 49 43 41 38 37 39 32 37 35 32 29 26 25
30 30 31 31 31 33 43 48 49 45 46 46 48 46 52 47 48 53 52 50 44 44 46 44 46 47 46 48 49 52 54 51 48 39 38 38 38 37 37 38 36 36 29
30 31 31 30 30 34 42 47 46 44 46 48 47 47 46 45 47 48 45 47 46 49 52 54 56 45 47 46 47 50 53 53 52 52 41 38 38 38 38 39 40 39 30
30 30 30 30 29 34 40 44 42 42 44 47 47 44 40 35 35 36 37 39 40 45 49 50 48 46 46 46 45 43 43 52 51 54 51 38 39 40 41 43 46 45 37
29 30 29 31 31 34 39 44 40 38 43 46 47 44 40 37 35 40 41 40 45 44 48 48 48 47 45 44 45 45 47 47 49 51 51 41 40 42 42 44 43 48 51
27 30 29 32 30 33 38 43 38 37 42 45 45 40 37 36 40 43 41 43 45 46 49 49 47 45 44 43 42 42 46 46 46 42 48 47 45 41 42 46 43 44 48
26 30 29 30 31 33 36 41 37 37 42 44 44 43 40 40 42 42 44 46 49 48 45 45 44 43 43 42 44 43 42 43 46 48 47 48 46 47 45 47 45 46 48
24 27 29 31 32 35 37 39 39 38 40 41 40 43 42 41 42 43 44 49 46 45 44 43 41 40 41 42 42 41 41 43 45 46 47 47 40 50 50 48 51 50 52
24 26 29 31 34 36 38 37 37 37 39 37 40 44 45 43 44 44 45 45 45 44 42 41 42 41 44 41 40 40 41 42 45 49 49 48 49 52 53 53 53 52 49
26 26 29 31 34 35 37 38 37 36 37 36 39 45 46 44 46 46 46 45 43 43 41 42 41 44 40 36 33 35 41 42 42 52 51 50 52 58 60 52 57 54 58
25 27 30 32 34 36 36 35 35 36 37 37 38 46 45 42 42 45 44 44 44 40 38 41 42 42 40 30 38 36 40 41 41 43 40 45 57 68 71 57 61 62 60
26 26 28 30 33 34 35 35 35 37 36 37 38 40 41 38 42 45 45 45 44 41 41 41 42 46 26 75 67 62 40 38 38 40 41 41 68 61 76 81 74 71 62
25 26 28 30 32 33 35 35 34 34 35 35 34 37 39 39 43 41 41 44 47 47 46 44 43 46 45 74 71 70 42 40 44 42 44 39 34 64 56 62 72 77 80
24 25 26 29 30 30 32 33 31 33 32 30 31 35 39 38 42 40 41 46 47 49 48 47 45 45 46 78 76 78 51 42 42 44 45 49 48 70 68 61 53 50 51
22 25 24 26 29 30 32 32 31 31 29 28 30 31 36 37 41 44 52 47 48 50 47 44 46 48 56 81 79 70 44 38 40 36 41 48 49 82 79 64 58 54 61
22 23 24 26 28 30 31 34 32 32 30 27 28 28 32 34 38 41 45 45 45 44 38 39 46 54 48 83 80 67 42 41 38 36 39 77 66 81 83 66 60 66 84
23 23 25 27 29 30 32 35 35 35 29 26 26 28 30 34 36 40 42 44 42 40 43 39 44 45 45 65 80 78 47 41 38 35 36 48 80 80 78 81 63 72 77
23 25 27 29 30 31 33 34 34 35 30 26 27 28 31 29 30 41 43 41 41 43 46 44 46 46 42 66 79 78 77 71 43 38 40 55 76 78 78 76 77 81 88
22 24 27 30 31 32 34 36 36 33 33 31 30 31 32 31 32 40 45 45 42 48 48 47 54 55 44 51 82 79 79 78 55 41 64 74 76 79 81 85 81 87 82
22 24 27 30 34 34 32 34 32 33 34 33 33 34 37 37 35 36 41 48 56 60 50 53 60 64 57 54 65 59 69 84 67 69 61 68 77 82 78 76 71 71 77
20 24 27 29 31 32 32 31 30 34 34 34 35 37 37 40 40 40 48 45 48 53 56 54 56 71 73 67 67 66 64 63 62 62 62 61 60 61 62 62 65 73 75
19 22 25 27 28 30 31 30 30 32 37 38 38 44 50 50 47 51 72 94 69 78 73 67 57 55 69 80 82 76 70 66 69 57 63 63 69 69 66 66 70 76 80
Wind_Speed
16 15 15 16 14 13 11 8 7 7 5 3 5 6 6 6 7 6 10 10 9 9 8 7 7 8 8 8 7 7 8 7 6 5 5 5 4 4 4 5 7 9 9
18 16 15 15 15 14 13 11 9 8 8 7 5 7 5 7 6 7 7 8 8 9 8 8 8 8 7 9 9 9 6 8 8 6 5 2 5 4 5 5 6 8 7
19 17 17 15 15 15 15 14 12 10 5 8 9 6 7 6 5 6 7 8 9 10 9 9 8 8 7 8 9 9 11 7 8 12 6 4 6 8 4 3 4 6 6
18 18 17 17 16 14 14 14 14 12 9 7 7 7 5 6 5 6 7 7 9 9 9 8 8 9 8 10 8 9 9 9 9 6 7 7 7 5 4 6 8 8 5
20 19 18 17 16 15 14 14 14 13 11 9 10 7 8 7 5 6 8 7 6 8 10 7 7 7 8 9 10 10 11 8 8 7 7 7 5 7 5 6 9 9 6
21 19 18 17 16 15 16 15 15 13 12 10 10 10 10 10 7 7 6 5 5 6 6 8 8 9 9 8 8 10 11 9 8 6 7 7 6 7 6 8 9 11 9
21 20 20 18 17 16 16 14 15 14 13 12 10 10 10 10 10 9 6 7 5 4 6 7 7 6 8 8 8 8 8 8 7 8 6 5 5 5 6 7 9 10 9
20 21 21 19 18 17 17 16 16 14 14 13 11 10 12 8 8 7 8 6 6 6 8 9 7 8 8 6 6 7 6 7 7 8 6 4 5 5 5 6 8 9 9
23 23 22 19 18 18 17 16 16 15 14 13 12 11 11 11 9 10 8 7 8 7 8 8 8 8 6 5 7 5 6 6 6 5 6 5 5 4 5 6 6 7 8
23 22 21 21 18 17 16 16 16 16 15 14 12 11 11 10 11 10 9 9 8 10 8 8 8 7 6 5 5 5 7 6 4 5 6 6 6 6 6 6 6 6 8
23 22 21 20 19 18 17 16 15 16 15 14 13 12 12 11 11 9 10 9 9 9 8 7 7 6 6 5 5 5 5 5 5 5 5 6 7 6 6 6 6 7 8
21 22 21 22 20 19 18 17 16 16 15 15 14 13 12 12 11 10 10 10 9 9 8 7 7 6 6 5 4 4 5 5 5 6 6 7 6 7 8 7 8 8 8
20 21 22 21 20 19 18 18 17 16 16 15 15 14 13 13 12 11 10 10 10 9 9 8 7 6 5 4 3 4 4 4 5 6 6 7 8 8 8 9 8 8 7
21 21 21 22 21 20 19 19 18 17 17 16 16 15 14 13 12 11 11 11 10 10 9 8 7 6 5 5 3 3 2 3 4 5 5 5 7 8 9 8 9 9 9
21 22 23 22 22 21 20 19 19 18 18 17 17 16 15 14 13 13 12 11 10 10 9 8 8 6 5 3 1 2 2 3 4 4 5 4 3 3 3 6 9 9 8
23 23 23 24 24 23 21 20 19 19 18 18 17 16 16 15 14 13 13 12 11 10 9 9 8 7 4 9 5 5 1 3 4 5 5 6 9 3 8 10 9 8 7
22 23 24 23 23 23 22 21 20 19 19 18 17 17 16 15 15 14 13 13 12 10 10 9 9 8 8 9 4 2 5 3 4 5 6 7 5 4 10 10 13 12 14
21 21 20 20 22 22 22 20 20 19 19 19 18 17 17 16 15 15 14 13 11 11 10 9 9 8 6 12 7 3 6 3 3 4 5 6 7 10 10 11 10 9 8
20 19 19 20 21 23 22 22 21 20 20 20 19 19 18 17 16 15 13 13 11 11 10 10 9 8 10 12 9 6 6 4 4 3 4 3 6 10 9 11 11 10 10
16 18 19 20 21 22 22 22 22 21 21 20 20 19 18 17 17 16 15 12 12 11 9 10 9 6 7 12 10 7 6 4 3 4 2 8 5 4 7 9 10 11 10
17 17 18 19 21 22 22 22 21 21 20 19 19 19 19 18 17 16 13 13 13 11 10 10 8 8 7 12 11 8 6 4 3 4 3 6 5 5 7 8 8 10 10
18 18 17 17 19 21 21 22 22 19 19 19 19 19 18 15 14 16 14 14 13 11 11 10 8 6 8 7 10 9 8 5 5 4 3 4 6 5 9 9 7 10 7
17 17 17 18 18 19 19 21 19 20 19 19 19 18 18 16 16 15 14 12 13 10 10 8 7 7 6 8 12 11 8 6 5 4 4 3 8 11 12 12 9 5 5
17 17 17 18 18 18 20 19 20 19 19 19 19 16 15 15 14 11 11 10 10 9 9 8 7 6 7 7 7 7 7 7 7 7 6 5 5 7 6 6 3 6 5
15 16 17 17 19 20 20 21 21 20 19 19 16 16 14 15 14 12 10 10 11 10 9 8 8 7 7 7 8 7 8 6 2 2 5 4 3 4 4 4 5 5 6
12 14 16 16 17 19 20 20 20 21 19 17 15 13 12 12 11 10 6 14 4 10 8 7 7 5 5 14 13 12 10 8 5 3 5 2 3 4 5 4 5 4 5
Wind_Direction
163 160 159 162 159 162 152 140 124 125 112 129 114 123 99 85 63 53 47 45 38 38 29 59 52 59 44 39 26 55 36 38 13 288 163 137 136 64 26 48 37 9 28
162 167 166 167 169 166 165 148 153 157 163 175 135 85 91 86 85 74 64 54 47 41 48 51 53 36 64 50 46 21 71 60 31 359 304 200 155 127 69 21 28 23 9
172 173 174 178 181 179 173 168 168 171 144 132 126 122 118 115 128 97 73 57 58 54 52 51 55 54 52 57 44 40 21 62 65 44 7 335 9 326 119 103 35 8 15
178 179 181 182 186 183 183 172 168 159 154 144 106 112 118 122 75 96 84 72 57 61 55 54 64 63 55 48 49 45 47 34 40 51 59 62 32 352 342 341 37 0 13
183 181 184 183 185 171 171 171 166 166 156 136 140 139 123 118 115 107 103 98 72 54 54 44 48 49 59 58 53 46 43 46 47 38 24 21 26 16 329 326 347 360 6
182 183 183 182 183 173 166 173 173 165 160 149 144 139 142 145 143 128 132 93 89 85 78 69 62 60 63 56 56 57 49 50 38 48 40 31 15 1 348 335 342 339 338
184 183 182 181 179 174 172 173 176 165 162 159 152 147 152 149 142 146 137 141 124 108 92 73 59 63 69 62 59 63 61 51 47 32 31 36 26 356 349 343 343 334 337
188 189 183 182 181 177 175 178 179 166 165 158 155 153 158 157 152 159 151 148 142 120 104 90 82 68 68 64 68 63 60 49 49 37 25 23 18 3 2 353 344 333 330
190 189 184 182 179 178 177 180 179 167 166 164 158 161 170 156 156 151 154 147 134 128 117 106 93 77 71 63 70 65 55 47 35 37 23 1 11 11 8 358 349 337 325
186 187 187 180 181 180 174 178 180 169 167 165 165 165 166 163 151 157 152 153 138 124 128 116 111 95 78 62 56 70 50 43 32 31 20 9 7 7 9 355 338 334 324
182 184 188 176 182 177 173 176 179 166 167 165 170 165 163 160 161 158 152 144 143 144 141 127 120 112 95 76 66 64 52 46 36 22 19 20 6 6 2 344 338 334 342
175 185 185 175 179 177 172 175 176 169 168 169 169 166 163 163 167 157 157 149 151 149 145 147 132 123 97 77 70 54 45 40 28 20 12 22 4 360 360 342 343 345 338
176 178 179 176 179 178 176 174 175 171 168 170 166 167 167 168 169 160 156 164 157 156 156 152 146 128 113 120 106 68 54 41 32 20 11 13 5 3 353 340 345 341 330
177 178 178 177 181 180 178 174 174 171 170 168 169 167 171 169 168 167 165 167 166 162 160 161 148 140 150 137 117 95 57 27 40 22 1 12 14 3 352 347 347 342 332
178 180 180 177 181 180 179 176 174 171 170 170 172 170 172 174 171 169 170 169 172 172 168 159 158 163 163 135 118 127 53 11 11 7 353 20 53 228 306 343 346 335 336
181 182 181 180 183 182 180 177 174 171 172 172 175 171 172 173 173 173 175 172 178 173 172 171 170 172 179 105 67 339 1 348 359 344 354 342 174 321 206 231 247 269 325
182 183 185 183 183 182 180 178 174 170 174 175 176 173 174 176 175 176 177 177 180 174 178 180 180 185 136 140 142 329 284 317 355 346 343 332 16 24 350 333 273 240 229
184 186 184 184 183 179 180 176 174 172 176 177 177 174 176 178 176 179 180 180 180 181 182 186 189 186 136 152 173 218 273 292 319 333 320 338 339 46 348 326 322 341 347
183 184 183 182 178 179 178 178 175 175 179 180 180 177 178 179 177 180 180 181 181 183 188 186 187 190 145 158 173 217 253 262 282 300 285 315 326 36 347 314 328 341 359
176 178 178 179 179 178 179 180 180 179 183 183 181 178 179 182 180 180 182 181 185 187 187 182 186 171 161 161 177 213 257 270 287 295 102 78 28 14 349 323 331 347 345
174 173 177 182 179 178 179 183 184 184 183 183 181 180 181 183 180 179 180 182 187 183 186 182 178 178 209 160 178 202 262 276 298 289 308 107 81 35 334 313 336 337 318
169 172 174 179 178 179 181 186 188 178 181 182 183 182 181 183 178 179 180 184 185 184 180 182 181 190 183 118 176 193 232 343 285 298 324 90 28 322 279 286 339 308 299
172 174 176 179 179 180 182 190 185 181 181 180 184 183 181 186 180 180 178 181 186 184 180 188 186 184 189 158 157 185 207 229 265 315 51 259 262 263 269 235 261 294 331
173 174 176 181 181 183 185 191 185 181 182 180 182 181 182 184 183 180 180 180 183 180 185 185 185 182 185 192 170 196 199 221 230 227 222 229 263 283 279 285 8 347 335
172 174 181 184 187 186 188 189 187 180 184 182 179 181 182 185 184 181 182 185 189 185 183 181 184 182 187 197 180 184 195 204 117 13 256 259 310 318 327 339 351 344 341
177 180 187 188 188 189 190 190 191 182 183 182 181 178 174 179 179 177 146 41 153 132 120 135 185 140 143 141 131 120 108 100 93 238 252 285 311 324 316 333 346 343 339